[[{"header":{"parameterUnit":"m.s-1","parameterCategory":1,"la1":30.2991,"la2":30.254,"lo1":-89.0895,"lo2":-89.0444,"dy":0.0017,"dx":0.0017,"nx":28,"ny":28,"refTime":"2024-04-20T21:00:00:Z","depth":0,"parameterNumber":2,"parameterNumberName":"U-component_of_WINDS"},"data":[0,0,0,0,0,0,0,0,0,0,0,0,0,0,0,0,0,0,0,0,0,0,0,0,0,0,0,0,0,0,0,0,0,0,0,0,0,0,0,0,0,0,0,0,0,0,0,0,0,0,0,0,0,0,0,0,0,0,-2.7555,-2.7555,0,-2.7513,-2.7513,-2.7512,-2.7441,-2.7439,-2.7438,-2.7437,-2.7395,-2.7395,-2.7395,0,0,0,0,0,0,0,0,0,0,0,0,0,-2.7575,-2.7575,-2.7555,-2.7555,-2.7554,-2.7513,-2.7513,-2.7512,-2.7441,-2.7439,-2.7438,-2.7436,-2.7395,-2.7395,-2.7395,0,0,0,0,0,0,0,0,0,0,0,0,0,-2.7553,-2.7575,-2.7555,-2.7514,-2.751,-2.7513,-2.7513,-2.7512,-2.7441,-2.7439,-2.7437,-2.7435,-2.7395,-2.7395,-2.7395,-2.7436,0,0,-2.7396,-2.7396,0,0,0,0,0,0,0,0,-2.7555,-2.7553,-2.7521,-2.7517,-2.7512,-2.748,-2.7504,-2.7487,-2.7442,-2.7467,-2.7437,-2.7434,-2.7425,-2.7422,-2.7419,-2.7434,-2.7432,-2.7396,-2.7396,-2.7396,-2.7396,0,0,0,0,0,0,0,-2.7556,-2.7554,-2.7539,-2.752,-2.7515,-2.7498,-2.7492,-2.75,-2.7458,-2.7465,-2.746,-2.7456,-2.7422,-2.7419,-2.7417,-2.7432,-2.7396,-2.7396,-2.7396,-2.7396,-2.7477,-2.7479,0,0,0,0,0,0,-2.7564,-2.7556,-2.754,-2.7537,-2.7529,-2.7499,-2.7493,-2.7492,-2.7458,-2.745,-2.7457,-2.7452,-2.742,-2.7417,-2.7416,-2.746,-2.7396,-2.7396,-2.7396,-2.7475,-2.7478,-2.748,0,0,0,0,0,0,-2.7564,-2.7563,-2.7542,-2.7545,-2.7541,-2.7501,-2.7501,-2.7493,-2.7489,-2.7452,-2.7444,-2.7462,-2.7418,-2.7415,-2.7431,-2.7458,-2.7396,-2.7396,-2.7473,-2.7476,-2.7479,-2.7551,0,0,0,0,0,0,-2.7565,-2.7564,-2.7579,-2.7546,-2.7541,-2.7558,-2.7502,-2.7493,-2.749,-2.7483,-2.7454,-2.7447,-2.7416,-2.7431,-2.7431,-2.7457,-2.7396,-2.747,-2.7474,-2.7478,-2.7546,-2.7556,-2.7564,0,0,0,0,0,-2.7566,-2.7601,-2.758,-2.7578,-2.7559,-2.756,-2.7557,-2.752,-2.7492,-2.7507,-2.7483,-2.7448,-2.7455,-2.7434,-2.7433,-2.7459,-2.7468,-2.7473,-2.7478,-2.7541,-2.7554,-2.7564,0,0,0,0,0,0,-2.7639,-2.7596,-2.7572,-2.7597,-2.7583,-2.7548,-2.7565,-2.7535,-2.7528,-2.7522,-2.7477,-2.7471,-2.7492,-2.7477,-2.7454,-2.7496,-2.7456,-2.7461,-2.7505,-2.7516,-2.7526,-2.7528,-2.7397,0,0,0,0,0,-2.7658,-2.7661,-2.7624,-2.765,-2.7644,-2.7606,-2.7605,-2.7578,-2.7561,-2.7554,-2.7531,-2.7516,-2.7515,-2.7515,-2.7512,-2.7543,-2.7535,-2.7561,-2.757,-2.7578,-2.7583,-2.7597,-2.7607,-2.7495,-2.7495,-2.7495,0,0,-2.7697,-2.7674,-2.7679,-2.7664,-2.7649,-2.7654,-2.7601,-2.7609,-2.7612,-2.7556,-2.7568,-2.7551,-2.7532,-2.7555,-2.7564,-2.7543,-2.7612,-2.7584,-2.7591,-2.7591,-2.7602,-2.7613,-2.7623,-2.7498,-2.7498,-2.7497,0,0,-2.777,-2.7754,-2.7773,-2.7759,-2.7737,-2.7712,-2.7717,-2.7686,-2.7672,-2.7684,-2.7642,-2.7645,-2.7644,-2.7631,-2.7625,-2.7693,-2.766,-2.7694,-2.7742,-2.7756,-2.7765,-2.7773,-2.7795,-2.7804,-2.7698,-2.7698,-2.7698,0,-2.7821,-2.7826,-2.7787,-2.7796,-2.7791,-2.774,-2.7758,-2.7747,-2.7726,-2.7723,-2.77,-2.7697,-2.768,-2.7699,-2.7716,-2.7713,-2.7716,-2.7696,-2.7767,-2.7774,-2.7781,-2.7802,-2.7811,-2.7702,-2.7702,-2.7701,-2.7701,0,-2.789,-2.7894,-2.7912,-2.7892,-2.7889,-2.7903,-2.7865,-2.7867,-2.784,-2.7817,-2.783,-2.7808,-2.7799,-2.7802,-2.7776,-2.7817,-2.7804,-2.7775,-2.7734,-2.7796,-2.7815,-2.7823,-2.7708,-2.7707,-2.7705,-2.7704,0,0,-2.8007,-2.7964,-2.7971,-2.7961,-2.7933,-2.7936,-2.7948,-2.7938,-2.794,-2.7927,-2.7936,-2.7936,-2.7908,-2.79,-2.7873,-2.7886,-2.7939,-2.7854,-2.7853,-2.787,-2.7981,-2.8003,-2.8013,-2.7918,-2.792,-2.7921,-2.7982,0,-2.8073,-2.8091,-2.8055,-2.8081,-2.8084,-2.8036,-2.8046,-2.803,-2.8009,-2.8009,-2.7985,-2.7985,-2.7949,-2.7944,-2.7955,-2.7931,-2.7961,-2.7926,-2.7925,-2.7925,-2.793,-2.8023,-2.8046,-2.8105,-2.799,-2.7991,-2.7992,0,-2.8153,-2.8143,-2.8169,-2.8139,-2.8139,-2.8149,-2.8136,-2.8137,-2.8118,-2.8101,-2.8093,-2.8061,-2.807,-2.8031,-2.8043,-2.802,-2.8018,-2.8006,-2.8007,-2.8004,-2.7961,-2.8021,-2.8123,-2.8131,-2.8004,-2.8003,-2.8002,0,-2.8234,-2.8227,-2.8242,-2.8235,-2.82,-2.8208,-2.8194,-2.8173,-2.8169,-2.8159,-2.8156,-2.8147,-2.8142,-2.8136,-2.8102,-2.8077,-2.8118,-2.8076,-2.8103,-2.8104,-2.8113,-2.8113,-2.8214,-2.8114,-2.8114,-2.8114,-2.8114,0,-2.8311,-2.8328,-2.8277,-2.8286,-2.8304,-2.8263,-2.8283,-2.8264,-2.8245,-2.8249,-2.8208,-2.8213,-2.8168,-2.8168,-2.8141,-2.8154,-2.8153,-2.8139,-2.8132,-2.8142,-2.8144,-2.8139,-2.8133,-2.8116,-2.8116,-2.8115,-2.8115,0,-2.8403,-2.837,-2.8383,-2.8349,-2.8341,-2.8355,-2.8326,-2.8333,-2.8309,-2.8315,-2.8314,-2.8277,-2.8274,-2.824,-2.823,-2.8212,-2.8235,-2.8221,-2.8241,-2.8236,-2.8264,-2.8262,-2.8365,-2.8376,-2.8271,-2.8272,-2.8273,0,-2.8454,-2.8466,-2.8433,-2.8433,-2.8421,-2.8421,-2.8416,-2.8377,-2.8374,-2.8353,-2.8362,-2.8356,-2.8349,-2.8347,-2.8319,-2.8311,-2.8295,-2.8332,-2.8294,-2.8303,-2.8294,-2.8293,-2.8293,-2.834,-2.8341,-2.8342,-2.8343,0,-2.8547,-2.8529,-2.8525,-2.8514,-2.851,-2.85,-2.8488,-2.849,-2.8446,-2.8445,-2.8442,-2.8436,-2.8426,-2.842,-2.8407,-2.8392,-2.836,-2.8355,-2.8361,-2.8371,-2.8381,-2.8374,-2.8262,-2.8353,-2.8352,-2.8351,-2.8351,-2.835,-2.8619,-2.8627,-2.8605,-2.86,-2.8587,-2.8576,-2.858,-2.8556,-2.8553,-2.8541,-2.8518,-2.8518,-2.8497,-2.8476,-2.8465,-2.8463,-2.8444,-2.8453,-2.8455,-2.8457,-2.8462,-2.8383,-2.8461,-2.8461,-2.8461,-2.846,-2.846,0,-2.8708,-2.8691,-2.8688,-2.8671,-2.8668,-2.8638,-2.8622,-2.8621,-2.8622,-2.8605,-2.8599,-2.8595,-2.8588,-2.856,-2.8551,-2.8555,-2.854,-2.8554,-2.8552,-2.8549,-2.848,-2.8476,-2.8566,-2.8566,-2.8566,-2.8566,-2.8566,-2.8566,-2.8753,-2.8765,-2.8745,-2.875,-2.8733,-2.8732,-2.8725,-2.8715,-2.8701,-2.8698,-2.8692,-2.8674,-2.8652,-2.8641,-2.8634,-2.8625,-2.8623,-2.8642,-2.8628,-2.8564,-2.8554,-2.8544,-2.854,-2.8642,-2.8642,-2.8697,-2.8697,-2.8698]},{"header":{"parameterUnit":"m.s-1","parameterCategory":1,"la1":30.2991,"la2":30.254,"lo1":-89.0895,"lo2":-89.0444,"dy":0.0017,"dx":0.0017,"nx":28,"ny":28,"refTime":"2024-04-20T21:00:00:Z","depth":0,"parameterNumber":3,"parameterNumberName":"V-component_of_WINDS"},"data":[0,0,0,0,0,0,0,0,0,0,0,0,0,0,0,0,0,0,0,0,0,0,0,0,0,0,0,0,0,0,0,0,0,0,0,0,0,0,0,0,0,0,0,0,0,0,0,0,0,0,0,0,0,0,0,0,0,0,-0.4859,-0.4859,0,-0.4878,-0.4879,-0.4879,-0.4939,-0.494,-0.4942,-0.4943,-0.4959,-0.4958,-0.4958,0,0,0,0,0,0,0,0,0,0,0,0,0,-0.4871,-0.487,-0.4859,-0.4859,-0.486,-0.4878,-0.4879,-0.4879,-0.4939,-0.494,-0.4942,-0.4944,-0.4959,-0.4958,-0.4957,0,0,0,0,0,0,0,0,0,0,0,0,0,-0.4875,-0.487,-0.4859,-0.4892,-0.4895,-0.4878,-0.4879,-0.4879,-0.4938,-0.494,-0.4942,-0.4944,-0.496,-0.4959,-0.4957,-0.4909,0,0,-0.4954,-0.4953,0,0,0,0,0,0,0,0,-0.4875,-0.4875,-0.4887,-0.489,-0.4893,-0.4908,-0.4889,-0.4889,-0.4938,-0.4922,-0.4943,-0.4945,-0.494,-0.4941,-0.494,-0.491,-0.4911,-0.4953,-0.4953,-0.4952,-0.4952,0,0,0,0,0,0,0,-0.4874,-0.4874,-0.4867,-0.4887,-0.4891,-0.4904,-0.4907,-0.4889,-0.4919,-0.4923,-0.4928,-0.4929,-0.4942,-0.4941,-0.4941,-0.4911,-0.4953,-0.4952,-0.4952,-0.4951,-0.4842,-0.484,0,0,0,0,0,0,-0.487,-0.4873,-0.4866,-0.4867,-0.4889,-0.4902,-0.4906,-0.4901,-0.492,-0.4925,-0.4928,-0.4932,-0.4942,-0.4942,-0.4942,-0.4886,-0.4952,-0.4951,-0.495,-0.4844,-0.4841,-0.4839,0,0,0,0,0,0,-0.487,-0.4869,-0.4865,-0.4872,-0.4872,-0.49,-0.4895,-0.4901,-0.4899,-0.4923,-0.4929,-0.4921,-0.4944,-0.4943,-0.4917,-0.4887,-0.495,-0.4949,-0.4846,-0.4843,-0.484,-0.4775,0,0,0,0,0,0,-0.487,-0.4868,-0.4851,-0.4871,-0.4872,-0.4841,-0.4893,-0.49,-0.4897,-0.4904,-0.4918,-0.4922,-0.4945,-0.4918,-0.4916,-0.4887,-0.4948,-0.4849,-0.4845,-0.4841,-0.478,-0.477,-0.4761,0,0,0,0,0,-0.487,-0.4832,-0.485,-0.4849,-0.4851,-0.4839,-0.484,-0.4868,-0.4895,-0.4877,-0.4892,-0.4922,-0.4891,-0.4915,-0.4913,-0.4883,-0.4851,-0.4846,-0.4841,-0.4784,-0.4772,-0.4761,0,0,0,0,0,0,-0.4807,-0.4835,-0.4856,-0.4822,-0.4828,-0.485,-0.4829,-0.4854,-0.4852,-0.4857,-0.4891,-0.4894,-0.4862,-0.487,-0.4896,-0.4837,-0.4876,-0.487,-0.4833,-0.4822,-0.4813,-0.4811,-0.4947,0,0,0,0,0,-0.4789,-0.4778,-0.4803,-0.4771,-0.4773,-0.48,-0.4796,-0.4817,-0.4824,-0.4827,-0.484,-0.4844,-0.4836,-0.4829,-0.4823,-0.4781,-0.4784,-0.4759,-0.475,-0.4742,-0.4737,-0.4714,-0.4703,-0.4823,-0.4823,-0.4823,0,0,-0.4752,-0.4766,-0.4757,-0.4759,-0.4766,-0.4753,-0.4802,-0.4786,-0.4776,-0.4824,-0.48,-0.481,-0.4817,-0.4782,-0.4768,-0.4788,-0.4705,-0.4736,-0.473,-0.4729,-0.4708,-0.4697,-0.4687,-0.4819,-0.482,-0.4821,0,0,-0.4678,-0.4688,-0.4662,-0.4669,-0.4679,-0.4697,-0.4691,-0.4708,-0.4717,-0.4694,-0.4729,-0.4717,-0.4702,-0.4705,-0.4705,-0.4631,-0.4658,-0.4628,-0.4579,-0.4557,-0.4548,-0.4539,-0.4512,-0.4502,-0.4623,-0.4622,-0.4622,0,-0.463,-0.4614,-0.4646,-0.4628,-0.4627,-0.467,-0.4644,-0.4648,-0.4655,-0.4652,-0.4675,-0.4656,-0.4664,-0.4631,-0.4613,-0.4612,-0.4604,-0.4626,-0.4547,-0.4539,-0.4531,-0.4506,-0.4496,-0.4619,-0.4619,-0.4619,-0.462,0,-0.4554,-0.4542,-0.4519,-0.4526,-0.4523,-0.4501,-0.4528,-0.4521,-0.4542,-0.4557,-0.4532,-0.4543,-0.4539,-0.4533,-0.4553,-0.4502,-0.4514,-0.4541,-0.4581,-0.4516,-0.4492,-0.4483,-0.4613,-0.4615,-0.4616,-0.4617,0,0,-0.4441,-0.4465,-0.4457,-0.446,-0.4474,-0.4465,-0.4444,-0.4441,-0.4433,-0.4436,-0.4419,-0.4405,-0.443,-0.4429,-0.445,-0.4431,-0.437,-0.446,-0.4461,-0.4442,-0.4313,-0.4292,-0.428,-0.4388,-0.4387,-0.4385,-0.4312,0,-0.437,-0.4337,-0.4365,-0.4326,-0.4314,-0.4355,-0.4337,-0.4342,-0.4356,-0.4347,-0.4361,-0.435,-0.4385,-0.4385,-0.4367,-0.4381,-0.4345,-0.4387,-0.4371,-0.437,-0.4367,-0.4268,-0.4246,-0.4177,-0.4304,-0.4302,-0.4301,0,-0.4283,-0.4283,-0.4243,-0.426,-0.4256,-0.4239,-0.4238,-0.4229,-0.4236,-0.4247,-0.4247,-0.4273,-0.4252,-0.4291,-0.4262,-0.429,-0.4285,-0.4291,-0.4289,-0.4288,-0.4331,-0.4263,-0.4155,-0.4144,-0.4287,-0.4288,-0.4289,0,-0.4203,-0.4193,-0.4168,-0.417,-0.4188,-0.4175,-0.4182,-0.4192,-0.4188,-0.4186,-0.4184,-0.418,-0.4177,-0.4173,-0.4197,-0.4223,-0.4164,-0.4206,-0.4171,-0.417,-0.4156,-0.4157,-0.4045,-0.4154,-0.4154,-0.4155,-0.4155,0,-0.4121,-0.4095,-0.4132,-0.4117,-0.4088,-0.412,-0.409,-0.4101,-0.4109,-0.4095,-0.413,-0.4116,-0.4148,-0.4137,-0.4155,-0.4127,-0.4126,-0.4133,-0.4138,-0.413,-0.4129,-0.4126,-0.4131,-0.4152,-0.4153,-0.4153,-0.4154,0,-0.4027,-0.4051,-0.4026,-0.4046,-0.405,-0.4028,-0.4044,-0.403,-0.4046,-0.4028,-0.4025,-0.4049,-0.4038,-0.4061,-0.4053,-0.4065,-0.4026,-0.4039,-0.4023,-0.4027,-0.3991,-0.3993,-0.3873,-0.3858,-0.3978,-0.3977,-0.3976,0,-0.3972,-0.3953,-0.3971,-0.3965,-0.397,-0.3959,-0.3956,-0.3986,-0.3981,-0.3987,-0.3971,-0.3963,-0.3958,-0.3937,-0.3953,-0.3947,-0.3959,-0.3917,-0.3958,-0.395,-0.3957,-0.3957,-0.3955,-0.3908,-0.3907,-0.3906,-0.3905,0,-0.3872,-0.3885,-0.388,-0.3878,-0.3873,-0.3872,-0.3874,-0.3867,-0.3899,-0.3891,-0.388,-0.3876,-0.3868,-0.3858,-0.3856,-0.3861,-0.3887,-0.3892,-0.3883,-0.3874,-0.3865,-0.3868,-0.3999,-0.3894,-0.3895,-0.3896,-0.3897,-0.3897,-0.3796,-0.378,-0.379,-0.3782,-0.3787,-0.3788,-0.3775,-0.379,-0.3782,-0.3778,-0.3796,-0.3781,-0.3787,-0.3786,-0.3789,-0.3777,-0.3795,-0.3783,-0.378,-0.3776,-0.377,-0.3868,-0.3776,-0.3777,-0.3777,-0.3777,-0.3778,0,-0.3697,-0.3705,-0.3698,-0.37,-0.3693,-0.372,-0.3723,-0.3716,-0.3702,-0.3707,-0.3701,-0.3688,-0.3679,-0.3694,-0.3688,-0.3675,-0.3686,-0.3672,-0.3672,-0.3673,-0.3754,-0.3762,-0.3662,-0.3662,-0.3662,-0.3662,-0.3662,-0.3662,-0.3644,-0.3619,-0.3633,-0.361,-0.3619,-0.3605,-0.3605,-0.3605,-0.3609,-0.3593,-0.3586,-0.3597,-0.3605,-0.3599,-0.3591,-0.3596,-0.3591,-0.3572,-0.358,-0.3656,-0.3667,-0.3678,-0.3685,-0.3571,-0.3571,-0.35,-0.3499,-0.3499]}]]